CW0198 Weather Reports


Display with metric or nautical units.
time (UTC)temp
F
wind
direction
speed
MPH
gust
MPH
rain 1hr
in
rain 24hr
in
rain mn
in
humidity
%
barometer
mb
20260506190022 79 164 6.0 16.0 0.00 0.00 0.00 60 1012.7
20260506184533 80 210 5.0 14.0 0.00 0.00 0.00 59 1012.7
20260506183051 81 296 7.0 18.0 0.00 0.00 0.00 58 1012.7
20260506181518 80 244 9.0 15.0 0.00 0.00 0.00 60 1012.9
20260506180043 81 184 9.0 17.0 0.00 0.00 0.00 59 1013.1
20260506174552 80 163 8.0 13.0 0.00 0.00 0.00 60 1013.4
20260506173021 79 176 9.0 17.0 0.00 0.00 0.00 60 1013.6
20260506171530 79 223 6.0 15.0 0.00 0.00 0.00 60 1013.8
20260506170059 78 194 5.0 10.0 0.00 0.00 0.00 62 1013.9
20260506164502 77 226 5.0 11.0 0.00 0.00 0.00 63 1013.9
20260506163028 77 231 3.0 10.0 0.00 0.00 0.00 65 1014.0
20260506161539 75 254 5.0 13.0 0.00 0.00 0.00 65 1013.9
20260506160013 75 220 4.0 9.0 0.00 0.00 0.00 65 1013.9
20260506154519 73 252 4.0 11.0 0.00 0.00 0.00 67 1013.5
20260506153038 73 212 7.0 11.0 0.00 0.00 0.00 67 1013.8
20260506151556 72 216 6.0 15.0 0.00 0.00 0.00 68 1013.7
20260506150026 73 141 4.0 10.0 0.00 0.00 0.00 67 1014.2
20260506144545 73 221 4.0 11.0 0.00 0.00 0.00 68 1014.3
20260506143058 71 214 3.0 10.0 0.00 0.00 0.00 70 1014.3
20260506141520 70 196 5.0 13.0 0.00 0.00 0.00 71 1014.4
20260506140041 70 253 6.0 12.0 0.00 0.00 0.00 72 1014.3
20260506134559 68 212 4.0 11.0 0.00 0.00 0.00 76 1014.6
20260506133016 67 233 6.0 10.0 0.00 0.00 0.00 77 1014.8
20260506131539 67 242 3.0 12.0 0.00 0.00 0.00 78 1014.5
20260506130057 67 205 5.0 11.0 0.00 0.00 0.00 78 1014.2
20260506124521 66 241 5.0 14.0 0.00 0.00 0.00 80 1014.1
20260506123043 66 217 4.0 14.0 0.00 0.00 0.00 81 1014.0
20260506121613 65 232 5.0 12.0 0.00 0.00 0.00 82 1014.2
20260506121501 65 209 4.0 12.0 0.00 0.00 0.00 82 1014.1
20260506120017 64 193 3.0 9.0 0.00 0.00 0.00 84 1013.9
20260506114539 63 238 4.0 9.0 0.00 0.00 0.00 85 1014.1
20260506113108 62 188 2.0 6.0 0.00 0.00 0.00 87 1014.1
20260506111521 61 165 3.0 6.0 0.00 0.00 0.00 88 1014.0
20260506110034 61 163 3.0 7.0 0.00 0.00 0.00 89 1014.0
20260506104557 60 121 3.0 6.0 0.00 0.00 0.00 90 1013.6
20260506103029 60 152 1.0 6.0 0.00 0.00 0.00 90 1013.9
20260506101547 59 198 2.0 6.0 0.00 0.00 0.00 90 1014.0
20260506100007 60 229 1.0 4.0 0.00 0.00 0.00 90 1014.1
20260506094534 60 231 0.0 3.0 0.00 0.00 0.00 90 1014.3
20260506093052 60 203 2.0 4.0 0.00 0.00 0.00 89 1014.3
20260506091508 60 215 1.0 5.0 0.00 0.00 0.00 89 1014.2
20260506090031 60 162 2.0 5.0 0.00 0.00 0.00 88 1014.0
20260506084549 60 220 2.0 7.0 0.00 0.00 0.00 88 1014.3
20260506083014 60 203 3.0 5.0 0.00 0.00 0.00 88 1014.0
20260506081533 60 218 0.0 4.0 0.00 0.00 0.00 89 1014.0
20260506080110 60 200 1.0 4.0 0.00 0.00 0.00 88 1014.0
20260506073036 60 174 0.0 3.0 0.00 0.00 0.00 86 1014.2
20260506071554 61 210 2.0 6.0 0.00 0.00 0.00 86 1014.3
20260506061514 62 229 2.0 6.0 0.00 0.00 0.00 83 1014.6
20260506044520 63 207 3.0 9.0 0.00 0.00 0.00 81 1015.2
20260506043032 63 158 3.0 8.0 0.00 0.00 0.00 81 1015.1
20260506041553 64 181 2.0 8.0 0.00 0.00 0.00 80 1015.3
20260506040005 64 164 5.0 9.0 0.00 0.00 0.00 79 1015.3
20260506034523 64 188 4.0 9.0 0.00 0.00 0.00 79 1015.4
20260506033043 65 226 5.0 11.0 0.00 0.00 0.00 78 1015.3
20260506031501 65 226 5.0 12.0 0.00 0.00 0.00 77 1015.7
20260506030021 66 194 5.0 10.0 0.00 0.00 0.00 76 1015.7
20260506024541 66 210 4.0 10.0 0.00 0.00 0.00 74 1015.6
20260506023005 67 153 6.0 10.0 0.00 0.00 0.00 72 1015.6
20260506021530 67 201 6.0 13.0 0.00 0.00 0.00 71 1015.5
20260506020053 68 183 7.0 15.0 0.00 0.00 0.00 70 1015.2
20260506014528 68 200 3.0 9.0 0.00 0.00 0.00 68 1015.0
20260506013045 69 172 3.0 10.0 0.00 0.00 0.00 67 1014.8
20260506011504 70 197 4.0 11.0 0.00 0.00 0.00 66 1014.6
20260506010031 70 191 4.0 13.0 0.00 0.00 0.00 65 1014.3
20260506004622 71 188 4.0 14.0 0.00 0.00 0.00 63 1014.0
20260506003008 71 127 2.0 13.0 0.00 0.00 0.00 62 1014.0
20260506001535 72 129 4.0 10.0 0.00 0.00 0.00 60 1013.8
20260506000052 73 169 5.0 12.0 0.00 0.00 0.00 59 1013.5
20260505234559 75 189 5.0 13.0 0.00 0.00 0.00 57 1013.4
20260505233043 77 180 5.0 13.0 0.00 0.00 0.00 55 1013.3
20260505231508 77 247 6.0 11.0 0.00 0.00 0.00 53 1013.3
20260505230030 78 229 6.0 10.0 0.00 0.00 0.00 53 1013.3
20260505224551 79 219 3.0 7.0 0.00 0.00 0.00 52 1013.4
20260505223012 78 198 2.0 9.0 0.00 0.00 0.00 52 1013.5
20260505221537 79 193 6.0 11.0 0.00 0.00 0.00 51 1013.6
20260505220143 80 248 6.0 14.0 0.00 0.00 0.00 49 1013.7
20260505214522 80 186 7.0 14.0 0.00 0.00 0.00 48 1013.7
20260505213046 80 212 5.0 12.0 0.00 0.00 0.00 48 1013.6
20260505211612 80 228 6.0 15.0 0.00 0.00 0.00 49 1013.6
20260505210029 81 212 6.0 13.0 0.00 0.00 0.00 47 1013.9
20260505204544 80 169 4.0 14.0 0.00 0.00 0.00 50 1013.8
20260505203008 82 209 7.0 12.0 0.00 0.00 0.00 48 1013.8
20260505201528 81 144 5.0 15.0 0.00 0.00 0.00 48 1013.8
20260505200051 80 219 5.0 14.0 0.00 0.00 0.00 48 1014.1
20260505194608 81 229 6.0 14.0 0.00 0.00 0.00 48 1014.3
20260505194502 81 226 6.0 14.0 0.00 0.00 0.00 47 1014.4
20260505193023 80 201 4.0 11.0 0.00 0.00 0.00 48 1014.6
20260505191536 81 219 7.0 14.0 0.00 0.00 0.00 47 1014.8